CW0104 Weather Reports


time (UTC)temp
F
wind
direction
speed
knots
gust
knots
rain 1hr
in
rain 24hr
in
rain mn
in
humidity
%
barometer
mb
20210723164712 77 324 0.9 7.8 0.00 0.01 0.00 53 1018.3
20210723164211 77 335 0.9 5.2 0.00 0.01 0.00 57 1018.3
20210723163709 77 327 0.0 5.2 0.00 0.01 0.00 58 1018.3
20210723163209 76 337 0.0 7.0 0.00 0.01 0.00 57 1018.4
20210723162708 77 315 0.9 7.8 0.00 0.01 0.00 55 1018.4
20210723162158 77 322 0.9 7.8 0.00 0.01 0.00 54 1018.4
20210723161648 77 317 0.0 3.5 0.00 0.01 0.00 54 1018.5
20210723161144 77 13 0.0 3.5 0.00 0.01 0.00 52 1018.5
20210723160644 76 343 0.0 3.5 0.00 0.01 0.00 53 1018.5
20210723160131 76 326 0.0 7.0 0.00 0.01 0.00 55 1018.7
20210723155627 76 317 0.0 7.0 0.00 0.01 0.00 55 1018.7
20210723155126 76 340 0.0 7.0 0.00 0.01 0.00 59 1018.7
20210723154627 76 340 0.9 7.0 0.00 0.01 0.00 54 1018.8
20210723154108 76 332 0.9 7.0 0.00 0.01 0.00 56 1018.8
20210723153606 76 8 0.0 7.0 0.00 0.01 0.00 55 1018.8
20210723153103 75 320 0.0 5.2 0.00 0.01 0.00 55 1018.8
20210723152556 75 335 0.9 7.0 0.00 0.01 0.00 58 1018.8
20210723152051 75 342 0.9 7.0 0.00 0.01 0.00 58 1018.8
20210723151552 74 331 0.0 7.0 0.00 0.01 0.00 62 1018.9
20210723151051 74 350 0.0 4.3 0.00 0.01 0.00 60 1018.9
20210723150549 74 352 0.0 5.2 0.00 0.01 0.00 62 1018.9
20210723150050 74 3 0.9 5.2 0.00 0.01 0.00 61 1018.9
20210723145533 73 13 0.0 4.3 0.00 0.01 0.00 62 1018.9
20210723145027 73 344 0.0 0.9 0.00 0.01 0.00 63 1018.9
20210723144506 73 340 0.0 4.3 0.00 0.01 0.00 65 1018.8
20210723144002 73 341 0.0 4.3 0.00 0.01 0.00 64 1018.8
20210723143451 72 332 0.0 5.2 0.00 0.01 0.00 66 1018.8
20210723142948 72 326 0.0 5.2 0.00 0.01 0.00 65 1018.9
20210723142448 72 335 0.0 4.3 0.00 0.01 0.00 68 1018.9
20210723141944 72 17 0.0 5.2 0.00 0.01 0.00 68 1018.9
20210723141443 71 17 0.0 5.2 0.00 0.01 0.00 68 1019.0
20210723140939 71 323 0.9 9.6 0.00 0.01 0.00 68 1019.0
20210723140430 71 324 0.9 9.6 0.00 0.01 0.00 68 1019.0
20210723135929 71 343 0.0 5.2 0.00 0.01 0.00 70 1019.0
20210723135423 70 331 0.0 7.8 0.00 0.01 0.00 70 1019.0
20210723134907 70 314 0.9 7.8 0.00 0.01 0.00 71 1019.1
20210723134404 70 358 2.6 7.8 0.00 0.01 0.00 72 1019.1
20210723133855 69 347 0.9 7.8 0.00 0.01 0.00 71 1019.1
20210723133350 69 314 2.6 9.6 0.00 0.01 0.00 72 1019.0
20210723132849 68 314 2.6 9.6 0.00 0.01 0.00 75 1019.0
20210723132348 67 3 2.6 7.8 0.00 0.01 0.00 78 1019.0
20210723131848 67 338 0.9 7.8 0.00 0.01 0.00 79 1019.2
20210723131348 67 337 0.9 8.7 0.00 0.01 0.00 80 1019.2
20210723130826 67 340 0.9 8.7 0.00 0.01 0.00 81 1019.2
20210723130327 67 339 0.0 7.0 0.00 0.01 0.00 82 1018.9
20210723125822 66 321 0.0 7.0 0.00 0.01 0.00 83 1018.9
20210723125323 66 339 0.0 9.6 0.00 0.01 0.00 83 1018.9
20210723124815 66 335 2.6 9.6 0.00 0.01 0.00 83 1018.8
20210723124309 66 333 2.6 7.8 0.00 0.01 0.00 84 1018.8
20210723123805 65 335 0.9 7.8 0.00 0.01 0.00 86 1018.8
20210723123247 65 340 0.0 0.9 0.00 0.01 0.00 87 1018.8
20210723122727 65 340 0.0 0.9 0.00 0.01 0.00 87 1018.8
20210723122226 65 333 0.0 0.9 0.00 0.01 0.00 88 1018.8
20210723121719 65 327 0.0 4.3 0.00 0.01 0.00 88 1018.8
20210723121215 65 326 0.9 7.8 0.00 0.01 0.00 89 1018.8
20210723120707 65 312 0.9 7.8 0.00 0.01 0.00 89 1018.8
20210723120204 65 333 0.0 5.2 0.00 0.01 0.00 90 1018.7
20210723115705 64 340 0.0 3.5 0.00 0.01 0.00 90 1018.7
20210723115159 64 342 0.0 3.5 0.00 0.01 0.00 90 1018.7
20210723114658 64 337 0.0 0.9 0.00 0.01 0.00 90 1018.7
20210723114149 64 336 0.0 0.9 0.00 0.01 0.00 90 1018.7
20210723113648 64 336 0.0 0.9 0.00 0.01 0.00 90 1018.7
20210723113126 64 336 0.0 4.3 0.00 0.01 0.00 90 1018.7
20210723112618 64 336 0.0 4.3 0.00 0.01 0.00 90 1018.7
20210723112114 64 347 0.0 2.6 0.00 0.01 0.00 91 1018.7
20210723111613 64 348 0.0 0.9 0.00 0.01 0.00 91 1018.6
20210723111105 63 348 0.0 0.9 0.00 0.01 0.00 91 1018.6
20210723110555 63 333 0.0 0.9 0.00 0.01 0.00 91 1018.6
20210723110049 63 334 0.0 0.0 0.00 0.01 0.00 91 1018.5
20210723105549 63 320 0.0 2.6 0.00 0.01 0.00 91 1018.5
20210723105048 63 320 0.0 3.5 0.00 0.01 0.00 91 1018.5
20210723104526 64 320 0.0 3.5 0.00 0.01 0.00 91 1018.3
20210723104021 63 320 0.0 0.0 0.00 0.01 0.00 91 1018.3
20210723103516 63 320 0.0 0.0 0.00 0.01 0.00 91 1018.3
20210723103004 63 320 0.0 0.0 0.00 0.01 0.00 91 1018.2
20210723102453 64 320 0.0 0.0 0.00 0.01 0.00 91 1018.2
20210723101949 64 320 0.0 0.9 0.00 0.01 0.00 91 1018.2
20210723101428 64 320 0.0 0.9 0.00 0.01 0.00 91 1018.2
20210723100925 64 320 0.0 0.9 0.00 0.01 0.00 91 1018.2
20210723100357 64 320 0.0 0.9 0.00 0.01 0.00 91 1018.2
20210723095853 64 320 0.0 0.0 0.00 0.01 0.00 91 1018.0
20210723095344 64 320 0.0 0.0 0.00 0.01 0.00 91 1018.0
20210723094837 64 320 0.0 0.0 0.00 0.01 0.00 92 1017.8
20210723094328 64 320 0.0 0.0 0.00 0.01 0.00 92 1017.8
20210723093810 64 320 0.0 0.0 0.00 0.01 0.00 92 1017.8
20210723093306 64 320 0.0 0.0 0.00 0.01 0.00 92 1017.7
20210723092748 64 320 0.0 0.0 0.00 0.01 0.00 92 1017.7
20210723092244 64 320 0.0 0.0 0.00 0.01 0.00 93 1017.7
20210723091736 64 320 0.0 0.0 0.00 0.01 0.00 93 1017.5
20210723091237 64 320 0.0 0.0 0.00 0.01 0.00 93 1017.5
20210723090735 64 320 0.0 0.0 0.00 0.01 0.00 93 1017.5
20210723090214 64 320 0.0 0.0 0.00 0.01 0.00 93 1017.4
20210723085714 64 320 0.0 0.0 0.00 0.01 0.00 93 1017.4
20210723085143 65 320 0.0 0.0 0.00 0.01 0.00 93 1017.4
20210723084645 65 320 0.0 0.0 0.00 0.01 0.00 93 1017.2
20210723084135 65 320 0.0 0.0 0.00 0.01 0.00 93 1017.2
20210723083633 65 320 0.0 0.0 0.00 0.01 0.00 94 1017.2
20210723083128 65 320 0.0 0.0 0.00 0.01 0.00 94 1017.2
20210723082610 65 320 0.0 0.0 0.00 0.01 0.00 94 1017.2
20210723082105 65 320 0.0 0.0 0.00 0.01 0.00 94 1017.2
20210723081600 65 320 0.0 0.0 0.00 0.01 0.00 94 1017.1
20210723081052 65 320 0.0 0.0 0.00 0.01 0.00 94 1017.1
20210723080551 65 320 0.0 0.0 0.00 0.01 0.00 94 1017.1
20210723080040 65 320 0.0 0.0 0.00 0.01 0.00 94 1017.2
20210723075534 65 320 0.0 0.0 0.00 0.01 0.00 94 1017.2
20210723075020 65 320 0.0 0.0 0.00 0.01 0.00 94 1017.2
20210723074512 65 320 0.0 0.0 0.00 0.01 0.00 94 1017.1
20210723074007 65 320 0.0 0.0 0.00 0.01 0.00 94 1017.1
20210723073459 65 320 0.0 0.0 0.00 0.01 0.00 94 1017.1
20210723072953 65 320 0.0 0.9 0.00 0.01 0.00 94 1017.2
20210723072452 65 320 0.0 0.9 0.00 0.01 0.00 95 1017.2
20210723071954 65 320 0.0 0.9 0.00 0.01 0.00 95 1017.2
20210723071437 65 320 0.0 0.9 0.00 0.01 0.00 95 1017.2
20210723070930 65 320 0.0 0.9 0.00 0.01 0.00 95 1017.2
20210723070414 65 320 0.0 0.9 0.00 0.01 0.00 95 1017.2
20210723065908 65 320 0.0 0.9 0.00 0.01 0.00 95 1017.4
20210723065402 65 320 0.0 0.9 0.00 0.01 0.00 95 1017.4
20210723064856 65 320 0.0 0.0 0.00 0.01 0.00 95 1017.4
20210723064349 65 320 0.0 0.0 0.00 0.01 0.00 95 1017.5
20210723063828 65 320 0.0 0.0 0.00 0.01 0.00 95 1017.5
20210723063324 65 320 0.0 0.0 0.00 0.01 0.00 95 1017.6
20210723062806 65 320 0.0 0.0 0.00 0.01 0.00 95 1017.6
20210723062259 66 320 0.0 0.0 0.00 0.01 0.00 95 1017.6
20210723061744 66 320 0.0 0.0 0.00 0.01 0.00 95 1017.6
20210723061236 66 320 0.0 0.0 0.00 0.01 0.00 95 1017.6
20210723060730 66 320 0.0 0.0 0.00 0.01 0.00 95 1017.6
20210723060220 66 320 0.0 0.0 0.00 0.01 0.00 95 1017.6
20210723055717 66 320 0.0 0.0 0.00 0.01 0.00 95 1017.6
20210723055203 66 320 0.0 0.0 0.00 0.01 0.00 95 1017.6
20210723054700 66 320 0.0 0.0 0.00 0.01 0.00 95 1017.7
20210723054154 66 320 0.0 0.0 0.00 0.01 0.00 95 1017.7
20210723053651 66 320 0.0 0.0 0.00 0.01 0.00 96 1017.7
20210723053145 66 320 0.0 0.0 0.00 0.01 0.00 96 1017.7
20210723052627 66 320 0.0 0.0 0.00 0.01 0.00 96 1017.7
20210723052125 66 320 0.0 0.0 0.00 0.01 0.00 96 1017.7
20210723051605 66 320 0.0 0.0 0.00 0.01 0.00 96 1017.7
20210723051101 66 320 0.0 0.0 0.00 0.01 0.00 96 1017.7
20210723050548 66 320 0.0 0.0 0.00 0.01 0.00 96 1017.7
20210723050048 66 320 0.0 0.0 0.00 0.01 0.00 96 1017.8
20210723045547 66 320 0.0 0.0 0.00 0.01 0.00 96 1017.8
20210723045045 66 320 0.0 0.0 0.00 0.01 0.00 96 1017.8
20210723044529 66 320 0.0 0.0 0.00 0.01 0.00 96 1017.7
20210723044023 66 320 0.0 0.0 0.00 0.01 0.00 96 1017.7
20210723043507 66 320 0.0 0.0 0.00 0.01 0.00 96 1017.7
20210723043001 66 320 0.0 0.0 0.00 0.01 0.00 96 1017.9
20210723042455 66 320 0.0 0.0 0.00 0.01 0.00 96 1017.9
20210723041954 66 320 0.0 0.0 0.00 0.01 0.00 96 1017.9
20210723041453 66 320 0.0 0.0 0.00 0.01 0.00 96 1018.1
20210723040934 66 320 0.0 0.0 0.00 0.01 0.00 96 1018.1
20210723040430 66 320 0.0 0.0 0.00 0.01 0.00 96 1018.1
20210723035910 66 320 0.0 0.0 0.00 0.01 0.01 96 1017.9
20210723035400 66 320 0.0 0.0 0.00 0.01 0.01 96 1017.9
20210723034848 66 320 0.0 0.0 0.00 0.01 0.01 96 1018.0
20210723034338 66 320 0.0 0.0 0.00 0.01 0.01 96 1018.0
20210723033837 66 320 0.0 0.0 0.00 0.01 0.01 96 1018.0
20210723033337 66 320 0.0 0.0 0.00 0.01 0.01 96 1018.0
20210723032824 66 320 0.0 0.0 0.00 0.01 0.01 96 1018.0
20210723032318 66 320 0.0 0.0 0.00 0.01 0.01 96 1018.0
20210723031802 66 320 0.0 0.0 0.00 0.01 0.01 96 1018.2
20210723031256 66 320 0.0 0.0 0.00 0.01 0.01 95 1018.2
20210723030754 66 320 0.0 0.0 0.00 0.01 0.01 96 1018.2
20210723030257 66 320 0.0 0.0 0.00 0.01 0.01 95 1018.1
20210723025749 66 320 0.0 0.0 0.00 0.01 0.01 96 1018.1
20210723025243 66 320 0.0 0.0 0.00 0.01 0.01 95 1018.1
20210723024726 66 320 0.0 0.0 0.00 0.01 0.01 95 1017.9
20210723024210 66 320 0.0 0.0 0.00 0.01 0.01 95 1017.9
20210723023704 66 320 0.0 0.0 0.00 0.01 0.01 95 1017.9
20210723023157 66 320 0.0 0.0 0.00 0.01 0.01 95 1017.8
20210723022652 66 320 0.0 0.0 0.00 0.01 0.01 94 1017.8
20210723022146 66 320 0.0 0.0 0.00 0.01 0.01 94 1017.8
20210723021640 66 320 0.0 0.0 0.00 0.01 0.01 94 1017.7
20210723021134 66 320 0.0 0.0 0.00 0.01 0.01 93 1017.7
20210723020631 66 320 0.0 0.0 0.00 0.01 0.01 93 1017.7
20210723020130 66 320 0.0 0.0 0.00 0.01 0.01 93 1017.7
20210723015624 66 320 0.0 0.0 0.00 0.01 0.01 92 1017.7
20210723015112 66 320 0.0 0.0 0.00 0.01 0.01 91 1017.7
20210723014600 67 320 0.0 0.0 0.00 0.01 0.01 91 1017.6
20210723014056 67 320 0.0 0.0 0.00 0.01 0.01 90 1017.6
20210723013548 67 320 0.0 0.0 0.00 0.01 0.01 90 1017.6
20210723013049 67 320 0.0 0.0 0.00 0.01 0.01 89 1017.3
20210723012548 67 320 0.0 0.0 0.00 0.01 0.01 89 1017.3
20210723012042 67 320 0.0 0.0 0.00 0.01 0.01 88 1017.3
20210723011530 67 320 0.0 0.0 0.00 0.01 0.01 88 1017.2
20210723011019 67 320 0.0 0.0 0.00 0.01 0.01 87 1017.2
20210723010515 68 320 0.0 0.0 0.00 0.01 0.01 87 1017.2
20210723010004 67 320 0.0 3.5 0.00 0.01 0.01 88 1017.2
20210723005451 67 320 0.0 3.5 0.00 0.01 0.01 89 1017.2
20210723004933 67 355 0.0 0.0 0.00 0.01 0.01 91 1017.2
20210723004423 68 355 0.0 0.0 0.00 0.01 0.01 93 1017.2
20210723003915 68 355 0.0 0.0 0.00 0.01 0.01 94 1017.2
20210723003408 69 355 0.0 0.0 0.00 0.01 0.01 95 1017.2
20210723002907 69 355 0.0 0.0 0.00 0.01 0.01 95 1017.0
20210723002405 69 355 0.0 0.0 0.00 0.01 0.01 95 1017.0
20210723001859 69 355 0.0 0.9 0.00 0.01 0.01 95 1017.0
20210723001400 69 355 0.0 0.9 0.00 0.01 0.01 95 1016.7
20210723000858 69 358 0.0 0.0 0.00 0.01 0.01 94 1016.7
20210723000353 69 358 0.0 0.0 0.00 0.01 0.01 93 1016.7
20210722235843 69 358 0.0 0.0 0.00 0.01 0.01 92 1016.7
20210722235343 69 358 0.0 0.0 0.00 0.01 0.01 92 1016.7
20210722234833 69 358 0.0 0.0 0.00 0.01 0.01 92 1016.7
20210722234317 70 358 0.0 0.0 0.00 0.01 0.01 91 1016.7
20210722233819 69 358 0.0 0.0 0.01 0.01 0.01 91 1016.7
20210722233312 69 358 0.0 0.0 0.01 0.01 0.01 91 1016.6
20210722232812 69 358 0.0 0.0 0.01 0.01 0.01 90 1016.6
20210722232305 69 358 0.0 0.0 0.01 0.01 0.01 89 1016.6
20210722231752 69 358 0.0 0.0 0.01 0.01 0.01 88 1016.4
20210722231243 69 358 0.0 0.0 0.01 0.01 0.01 88 1016.4
20210722230736 69 358 0.0 0.0 0.01 0.01 0.01 86 1016.4
20210722230217 69 358 0.0 0.0 0.01 0.01 0.01 85 1016.2
20210722225716 70 358 0.0 0.0 0.01 0.01 0.01 83 1016.2
20210722225215 70 358 0.0 0.0 0.01 0.01 0.01 81 1016.2
20210722224715 71 358 0.0 0.0 0.01 0.01 0.01 78 1016.6
20210722224205 72 358 0.0 0.0 0.01 0.01 0.01 77 1016.6
20210722223649 73 358 0.0 0.0 0.00 0.00 0.00 76 1016.6
20210722223143 74 3 0.0 0.0 0.00 0.00 0.00 78 1016.1
20210722222635 74 3 0.0 0.0 0.00 0.00 0.00 77 1016.1
20210722222129 74 3 0.0 0.0 0.00 0.00 0.00 75 1016.1
20210722221621 74 3 0.0 0.0 0.00 0.00 0.00 75 1016.1
20210722221113 74 3 0.0 0.0 0.00 0.00 0.00 74 1016.1
20210722220605 75 3 0.0 0.0 0.00 0.00 0.00 75 1016.1
20210722220051 75 3 0.0 0.0 0.00 0.00 0.00 76 1016.1
20210722215525 75 3 0.0 0.0 0.00 0.00 0.00 73 1016.1
20210722215019 75 3 0.0 0.0 0.00 0.00 0.00 75 1016.1
20210722214504 75 3 0.0 0.0 0.00 0.00 0.00 74 1016.1
20210722213956 75 3 0.0 0.0 0.00 0.00 0.00 74 1016.1
20210722213456 75 3 0.0 0.0 0.00 0.00 0.00 72 1016.1
20210722212944 75 3 0.0 0.0 0.00 0.00 0.00 70 1016.1
20210722212428 75 3 0.0 0.0 0.00 0.00 0.00 68 1016.1
20210722211914 76 3 0.0 0.0 0.00 0.00 0.00 66 1016.1
20210722211405 75 3 0.0 0.0 0.00 0.00 0.00 62 1016.0
20210722210849 75 3 0.0 0.9 0.00 0.00 0.00 64 1016.0
20210722210336 75 3 0.0 0.9 0.00 0.00 0.00 64 1015.8
20210722205827 75 336 0.0 0.0 0.00 0.00 0.00 63 1015.8
20210722205319 75 336 0.0 0.0 0.00 0.00 0.00 63 1015.8
20210722204803 75 336 0.0 0.0 0.00 0.00 0.00 61 1015.7
20210722204257 75 336 0.0 0.0 0.00 0.00 0.00 60 1015.7
20210722203746 75 336 0.0 0.0 0.00 0.00 0.00 59 1015.7
20210722203233 76 336 0.0 0.0 0.00 0.00 0.00 61 1015.8
20210722202714 76 336 0.0 0.0 0.00 0.00 0.00 62 1015.8
20210722202205 76 336 0.0 0.0 0.00 0.00 0.00 61 1015.8
20210722201656 76 336 0.0 0.0 0.00 0.00 0.00 59 1015.7
20210722201152 76 336 0.0 0.0 0.00 0.00 0.00 62 1015.8
20210722200648 77 336 0.0 0.0 0.00 0.00 0.00 59 1015.8
20210722200140 78 336 0.0 3.5 0.00 0.00 0.00 53 1015.7
20210722195634 78 336 0.0 5.2 0.00 0.00 0.00 54 1015.7
20210722195128 78 341 0.0 3.5 0.00 0.00 0.00 50 1015.7
20210722194624 79 339 0.0 4.3 0.00 0.00 0.00 47 1015.8
20210722194111 79 343 0.0 4.3 0.00 0.00 0.00 50 1015.8
20210722193611 78 330 0.0 4.3 0.00 0.00 0.00 52 1015.8
20210722193104 78 337 0.0 0.9 0.00 0.00 0.00 51 1015.8
20210722192601 78 337 0.0 0.9 0.00 0.00 0.00 50 1015.8
20210722192053 78 326 0.0 5.2 0.00 0.00 0.00 52 1015.8
20210722191541 78 326 0.0 5.2 0.00 0.00 0.00 50 1015.9
20210722191040 78 314 0.9 5.2 0.00 0.00 0.00 50 1015.9
20210722190535 78 3 0.9 5.2 0.00 0.00 0.00 52 1015.9
20210722190029 78 38 0.9 4.3 0.00 0.00 0.00 53 1016.1
20210722185524 78 344 0.9 8.7 0.00 0.00 0.00 51 1016.1
20210722185012 78 344 0.9 8.7 0.00 0.00 0.00 51 1016.1
20210722184513 78 346 0.0 3.5 0.00 0.00 0.00 53 1016.0
20210722184004 78 345 0.0 4.3 0.00 0.00 0.00 52 1016.0
20210722183501 78 359 0.9 4.3 0.00 0.00 0.00 54 1016.0
20210722182952 78 332 0.0 3.5 0.00 0.00 0.00 53 1015.9
20210722182445 77 101 0.0 3.5 0.00 0.00 0.00 59 1015.9
20210722181940 77 342 0.0 4.3 0.00 0.00 0.00 53 1015.9
20210722181430 78 342 0.0 7.0 0.00 0.00 0.00 55 1016.1
20210722180929 77 330 0.0 7.0 0.00 0.00 0.00 54 1016.1
20210722180424 77 308 0.0 0.9 0.00 0.00 0.00 54 1016.1
20210722175916 77 308 0.0 0.0 0.00 0.00 0.00 53 1016.1
20210722175413 77 308 0.0 2.6 0.00 0.00 0.00 56 1016.1
20210722174900 77 308 0.9 7.8 0.00 0.00 0.00 53 1016.1
20210722174400 77 300 0.9 7.8 0.00 0.00 0.00 51 1016.3
20210722173858 77 327 0.0 4.3 0.00 0.00 0.00 50 1016.3
20210722173357 77 349 0.9 7.0 0.00 0.00 0.00 50 1016.2
20210722172854 77 21 0.9 9.6 0.00 0.00 0.00 48 1016.3
20210722172354 77 329 0.9 9.6 0.00 0.00 0.00 49 1016.2
20210722171850 77 304 0.9 5.2 0.00 0.00 0.00 53 1016.2
20210722171349 77 350 0.9 9.6 0.00 0.00 0.00 52 1016.2
20210722170851 77 324 0.9 9.6 0.00 0.00 0.00 52 1016.2
20210722170342 77 323 0.9 11.3 0.00 0.00 0.00 54 1016.2
20210722165836 76 293 0.9 11.3 0.00 0.00 0.00 51 1016.2
20210722165328 76 354 0.0 3.5 0.00 0.00 0.00 54 1016.2